Regional Weather Roundup
Issued by NWS

Home | Current Version | Previous Version | Graphics & Text | Print | Product List | Glossary On
Versions: 1 2 3 4 5 6 7 8 9 10 11 12 13 14 15 16 17 18 19 20 21 22 23 24 25 26 27 28
000
ASUS45 KSLC 201710
RWRUT

UTAH REGIONAL WEATHER ROUNDUP
NATIONAL WEATHER SERVICE SALT LAKE CITY UT
1100 AM MDT SUN APR 20 2014

UTZ001>011-023>025-201800-

NORTHERN UTAH

CITY           SKY/WX    TMP DP  RH WIND       PRES   REMARKS
HILL AFB       PTSUNNY   60  32  34 NW8       30.17R
LOGAN          SUNNY     58  35  42 NW5       30.17R
OGDEN          MOSUNNY   64  30  27 NW9       30.16R
PROVO AIRPORT  NOT AVBL
SALT LAKE CITY MOSUNNY   62  32  32 N13       30.16R
VERNAL         MOSUNNY   58  39  49 VRB5      30.15S
WENDOVER       SUNNY     63  25  23 N8        30.18R
HEBER CITY     SUNNY     57  34  41 CALM      30.17S
WEST JORDAN    SUNNY     63  37  39 NW18      30.18R

$$

UTZ012>022-026-027-201800-

SOUTHERN UTAH

CITY           SKY/WX    TMP DP  RH WIND       PRES   REMARKS
BRYCE CANYON   SUNNY     59  32  36 W13G18    30.26R
CEDAR CITY     SUNNY     67  32  27 VRB5      30.17R
MILFORD        PTSUNNY   67  35  30 S14G22    30.15R
MOAB/CYNLANDS  SUNNY     64  41  42 E6        30.11F
PRICE          MOSUNNY   61  35  37 S6        30.17R
ST GEORGE      SUNNY     70  37  30 N5        30.11S
KANAB            N/A     63  36  36 S8        30.21F

$$

REGIONAL REPORTS     COLORADO/ARIZONA

CITY           SKY/WX    TMP DP  RH WIND       PRES   REMARKS
CRAIG, CO      SUNNY     58  39  49 VRB6      30.18R
GRAND JUNCTION MOSUNNY   60  40  47 CALM      30.15R
RIFLE          MOSUNNY   57  38  48 VRB3      30.17S
MONTROSE       SUNNY     60  41  49 CALM      30.19S
CORTEZ         SUNNY     64  37  36 W12       30.16S
PAGE, AZ       SUNNY     68  36  30 VRB5      30.13F
GRAND CANYON   SUNNY     60  36  40 W7        30.26R
KINGMAN        SUNNY     75  34  22 SW9       30.12S
FLAGSTAFF      MOSUNNY   60  32  34 VRB3      30.26R

$$

REGIONAL REPORTS    NEVADA/IDAHO/WYOMING

CITY           SKY/WX    TMP DP  RH WIND       PRES   REMARKS
LAS VEGAS, NV  MOSUNNY   78  36  21 S3        30.01S
ELY            MOSUNNY   58  29  33 CALM      30.22S
ELKO           SUNNY     56  26  31 VRB3      30.24S
POCATELLO, ID  SUNNY     54  26  34 W20G28    30.24R
BURLEY         SUNNY     51  27  39 W20G33    30.23R
EVANSTON, WY   PTSUNNY   57  34  41 W8        30.21R
ROCK SPRINGS   SUNNY     62  31  31 W17       30.17S

$$



USA.gov is the U.S. government's official web portal to all federal, state and local government web resources and services.